Location: Melbourne
(37.8170°S, 144.9670°E)
Time: 07:48:49
(UTC+11:00)

ADEOS Rocket - Visible Passes

Search period start: 23 October 2017 00:00
Search period end: 02 November 2017 00:00
Orbit: 859 x 1306 km, 98.8° (Epoch: 21 October)

Date Brightness Start Highest point End Pass type
(mag) Time Alt. Az. Time Alt. Az. Time Alt. Az.
23 Oct 4.7 00:44:37 29° SE 00:44:37 29° SE 00:48:40 10° S visible
23 Oct 4.7 02:31:33 26° SW 02:31:33 26° SW 02:34:30 10° SSW visible
23 Oct 5.3 23:54:56 14° SE 23:54:56 14° SE 23:57:48 10° SSE visible
24 Oct 4.2 01:41:53 41° S 01:41:53 41° S 01:45:48 10° SSW visible
25 Oct 4.5 00:52:12 33° SE 00:52:12 33° SE 00:56:21 10° S visible
25 Oct 4.8 02:39:08 24° SW 02:39:08 24° SW 02:41:52 10° SSW visible
26 Oct 5.2 00:02:31 16° SE 00:02:31 16° SE 00:05:47 10° SSE visible
26 Oct 4.2 01:49:27 41° SSW 01:49:27 41° SSW 01:53:20 10° SSW visible
27 Oct 4.4 00:59:46 36° SE 00:59:46 36° SE 01:04:00 10° S visible
27 Oct 4.8 02:46:44 21° SW 02:46:44 21° SW 02:49:12 10° SW visible
28 Oct 5.1 00:10:05 19° SE 00:10:05 19° SE 00:13:41 10° SSE visible
28 Oct 4.2 01:57:02 39° SSW 01:57:02 39° SSW 02:00:50 10° SSW visible
29 Oct 4.2 01:07:22 40° SSE 01:07:22 40° SSE 01:11:37 10° S visible
29 Oct 4.9 02:54:18 19° WSW 02:54:18 19° WSW 02:56:27 10° SW visible
30 Oct 4.9 00:17:40 21° SE 00:17:40 21° SE 00:21:31 10° SSE visible
30 Oct 4.2 02:04:37 37° SW 02:04:37 37° SW 02:08:18 10° SSW visible
31 Oct 4.0 01:14:56 43° SSE 01:14:56 43° SSE 01:19:13 10° S visible
31 Oct 5.0 03:01:52 16° WSW 03:01:52 16° WSW 03:03:37 10° SW visible
01 Nov 4.7 00:25:15 24° SE 00:25:15 24° SE 00:29:17 10° SSE visible
01 Nov 4.2 02:12:12 34° SW 02:12:12 34° SW 02:15:45 10° SSW visible
